Location: Brno
(49.2000°N, 16.6330°E)
Time: 16:26:31
(UTC+02:00)

Cosmos 332 Rocket - Visible Passes

Search period start: 28 April 2015 00:00
Search period end: 08 May 2015 00:00
Orbit: 682 x 707 km, 74.0° (Epoch: 27 April)

Date Brightness Start Highest point End Pass type
(mag) Time Alt. Az. Time Alt. Az. Time Alt. Az.
28 Apr 5.8 21:48:23 10° WSW 21:52:48 32° NW 21:57:13 10° N visible
29 Apr 6.9 04:41:32 10° N 04:45:05 20° NE 04:48:43 10° E visible
29 Apr 4.1 20:48:39 10° SSW 20:53:34 74° WNW 20:58:30 10° NNE visible
29 Apr 7.0 22:32:12 10° WNW 22:35:02 15° NW 22:37:43 10° N visible
30 Apr 7.7 03:45:09 10° NE 03:45:12 10° NE 03:45:27 10° NE visible
30 Apr 6.0 21:31:02 10° WSW 21:35:21 29° NW 21:39:39 10° N visible
01 May 6.8 04:23:55 10° N 04:27:39 21° NE 04:31:26 10° E visible
01 May 7.2 22:15:04 10° WNW 22:17:37 14° NW 22:20:01 10° NNW visible
02 May 7.6 03:26:39 10° NNE 03:27:48 11° NE 03:29:09 10° NE visible
02 May 6.3 21:13:41 10° WSW 21:17:54 27° NW 21:22:04 10° N visible
03 May 6.6 04:06:19 10° N 04:10:12 23° NE 04:14:08 10° ESE visible
03 May 7.4 21:57:59 10° WNW 22:00:12 13° NW 22:02:17 10° NNW visible
04 May 7.3 03:08:43 10° NNE 03:10:24 12° NE 03:12:15 10° ENE visible
04 May 4.7 04:47:18 10° NNW 04:52:08 56° ENE 04:56:56 10° SE visible
04 May 6.6 20:56:21 10° WSW 21:00:26 25° NW 21:04:28 10° N visible
05 May 6.3 03:48:43 10° N 03:52:45 25° NE 03:56:49 10° ESE visible
05 May 7.4 21:40:59 10° WNW 21:42:48 12° NW 21:44:27 10° NNW visible
06 May 7.1 02:50:55 10° NNE 02:52:59 13° NE 02:55:13 10° ENE visible
06 May 4.5 04:29:45 10° NNW 04:34:38 62° ENE 04:39:28 10° SE visible
07 May 6.1 03:31:08 10° N 03:35:17 27° NE 03:39:28 10° ESE visible
07 May 7.5 21:24:06 10° NW 21:25:23 11° NW 21:26:30 10° NNW visible
